Location: Beaux
(45.1872°N, 4.0922°E)
Time: 22:43:40
(UTC+00:00)

Daily predictions for brighter satellites

Satellite Brightness Start Highest point End
(mag) Time Altitude Azimuth Time Altitude Azimuth Time Altitude Azimuth
Cosmos 2227 Rocket 3.2 18:04:27 10° SSE 18:08:51 24° ESE 18:13:16 10° NE
Timation 2 Rocket 4.4 18:05:29 10° SW 18:12:02 72° WNW 18:18:21 10° NNE
YAOGAN 6 2.8 18:08:42 10° S 18:12:21 78° WSW 18:16:05 10° NNW
CZ-2D R/B 3.5 18:09:01 10° SSE 18:12:40 47° ENE 18:16:20 10° N
CZ-4 R/B 1.9 18:09:32 10° S 18:13:23 64° WSW 18:17:22 10° NNW
Cosmos 2219 3.5 18:08:59 10° S 18:14:23 45° ESE 18:19:51 10° NE
PSLV R/B 4.5 18:12:47 10° SSW 18:14:49 19° SSE 18:16:53 10° ESE
Meteor 2-9 Rocket 4.4 18:09:40 10° S 18:15:25 86° W 18:21:03 10° N
Envisat 3.8 18:10:29 10° S 18:15:28 57° W 18:20:29 10° NNW
Cosmos 2297 Rocket 2.9 18:14:03 10° SSE 18:18:54 30° ESE 18:23:46 10° NE
Aureole 1 Rocket 4.0 18:21:50 10° NNW 18:26:31 49° WSW 18:30:08 10° S
Cosmos 2074 Rocket 4.4 18:20:51 10° NNW 18:27:03 71° W 18:33:13 10° S
USA 116 4.1 18:25:50 10° N 18:29:37 62° WNW 18:32:58 10° SSW
Lacrosse 5 rocket 1.5 18:30:03 10° SSW 18:33:26 39° SE 18:36:57 10° ENE
Okean 1 Rocket 3.0 18:30:41 10° S 18:35:01 90° NW 18:39:25 10° N
Cosmos 405 Rocket 3.3 18:32:44 10° SSE 18:36:00 31° E 18:39:19 10° NNE
In-Cosmos 22 4.4 18:32:01 10° N 18:37:13 46° ENE 18:42:29 10° SSE
Cosmos 2181 Rocket 4.5 18:32:53 10° SSE 18:38:34 38° E 18:44:22 10° NNE
Cosmos 1025 Rocket 4.4 18:35:23 10° NNW 18:39:24 42° W 18:43:26 10° SSW
Cosmos 1939 Rocket 2.7 18:36:04 10° SSE 18:39:55 86° ENE 18:43:48 10° NNW
Cosmos 2341 Rocket 4.1 18:33:52 10° N 18:40:00 55° ENE 18:46:03 10° SSE
Cosmos 1190 Rocket 4.1 18:36:35 10° NNW 18:41:51 61° ENE 18:47:02 10° SSE
H-2A R/B 3.0 18:40:24 14° ESE 18:43:41 27° ENE 18:47:55 10° N
Cosmos 1437 Rocket 3.9 18:44:10 10° NNE 18:47:13 23° ENE 18:48:20 20° E
Cosmos 1674 4.0 18:44:51 10° NNE 18:47:40 20° ENE 18:48:21 19° E
Cosmos 614 Rocket 3.9 18:42:47 10° NNW 18:48:02 74° ENE 18:53:11 10° SSE
Cosmos 1441 Rocket 4.3 18:45:19 10° SSW 18:48:59 47° WNW 18:52:39 10° N
Meteor 1-15 Rocket 4.3 18:43:27 10° S 18:49:06 61° E 18:54:55 10° NNE
Cosmos 2237 Rocket 2.2 18:44:45 10° NNW 18:50:30 82° ENE 18:56:12 10° SSE
Cosmos 2333 Rocket 3.6 18:45:26 10° NW 18:50:44 40° WSW 18:56:02 10° S
NOSS 3-4 (A) 4.2 18:43:49 10° NW 18:50:50 71° WSW 18:58:30 10° SSE
NOSS 3-4 (C) 4.1 18:43:55 10° NW 18:50:56 71° WSW 18:58:36 10° SSE
Cosmos 2218 Rocket 4.4 18:47:31 10° N 18:53:33 43° ENE 18:59:15 11° SE
ADEOS Rocket 4.1 18:47:01 10° NNE 18:53:47 35° E 19:00:45 10° SSE
Cosmos 2154 Rocket 4.3 18:49:05 10° NNW 18:55:16 72° W 19:01:26 10° S
NOSS 0 Rocket 4.4 18:50:57 10° NNW 18:57:05 65° WSW 19:03:13 10° SSE
Ariane Rocket 3.3 18:52:42 10° S 18:57:44 69° WSW 19:02:49 10° NNW
HJ-1C 3.6 18:56:02 10° S 18:59:24 71° WSW 19:02:47 10° NNW
Meteor 1-24 Rocket 4.4 18:54:19 10° N 18:59:42 37° ENE 19:03:15 20° SE
FREGAT/IRIS 2.2 18:57:41 17° SSE 18:59:44 76° ENE 19:02:34 10° N
Cosmos 1980 3.8 18:54:58 10° NNW 19:00:38 79° WSW 19:06:17 10° SSE
SL-8 Rocket 4.0 18:55:01 10° N 19:01:06 56° ENE 19:07:08 10° SSE
Cosmos 389 Rocket 2.4 18:58:02 10° NNW 19:01:29 82° W 19:04:54 10° S
GP-B 4.2 18:58:16 10° N 19:02:33 48° W 19:06:48 10° SSW
Resurs 01 Rocket 2.9 19:02:49 21° ENE 19:03:28 22° ENE 19:06:51 10° NNE
SJ-11-01 4.2 18:59:13 10° SSE 19:03:56 69° ENE 19:08:40 10° N
EO 1 Delta rocket 4.3 18:58:16 10° SSE 19:04:47 80° E 19:09:59 10° N
CZ-2C R/B 3.6 19:01:16 10° NNE 19:05:40 59° E 19:10:02 10° S
Cosmos 1805 3.9 19:06:57 31° ESE 19:07:35 32° E 19:11:06 10° NNE
Cosmos 1892 Rocket 3.5 19:04:39 10° N 19:09:08 82° E 19:13:31 10° S
Cosmos 407 Rocket 3.7 19:04:49 10° NNW 19:09:55 70° WSW 19:15:00 10° S
USA 234 4.4 19:04:37 10° NE 19:10:33 38° NNW 19:16:31 10° W
SAR-Lupe-2 3.5 19:07:43 10° NNE 19:11:19 88° W 19:14:52 10° SSW
DELTA 2 R/B (1) 4.1 19:06:20 10° WSW 19:11:40 45° S 19:14:11 28° ESE
Cosmos 2056 Rocket 3.6 19:07:32 10° SSW 19:12:58 88° WNW 19:18:25 10° NNE
Cosmos 1420 Rocket 4.2 19:10:56 10° S 19:15:57 45° ESE 19:21:01 10° NNE
ASTEX 1 3.4 19:11:17 10° N 19:16:12 81° W 19:21:05 10° SSW
Cosmos 1707 4.3 19:14:45 10° NNW 19:18:24 37° W 19:22:01 10° SSW
Cosmos 2219 Rocket 4.4 19:16:23 10° NW 19:20:44 24° WSW 19:25:04 10° SSW
KORONAS-FOTON 4.1 19:18:51 10° N 19:22:29 43° ENE 19:22:30 43° ENE
SL-16 R/B 2.3 19:17:52 10° NNW 19:23:31 60° ENE 19:26:04 32° SE
Cosmos 1624 Rocket 4.3 19:19:06 10° SSW 19:24:16 69° WNW 19:29:29 10° NNE
Cosmos 1140 Rocket 3.6 19:20:45 10° NNW 19:25:55 76° WSW 19:29:46 18° SSE
ISS -3.3 19:22:40 10° WSW 19:25:56 57° NNW 19:26:54 38° NNE
ERBS 2.2 19:24:00 10° NW 19:27:23 65° NE 19:27:32 63° ENE
RESURS DK-1 3.4 19:24:11 10° N 19:27:47 29° NE 19:27:47 29° NE
SL-08 RB Rocket 4.1 19:26:58 39° ESE 19:27:52 44° ENE 19:32:18 10° N
SL-8 R/B 4.0 19:23:32 10° WNW 19:28:17 60° N 19:30:07 35° ENE
Cosmos 2084 Rocket 4.0 19:25:29 10° SW 19:29:54 63° NW 19:34:21 10° NE
Cosmos 1626 4.4 19:28:16 10° NNE 19:28:57 13° NE 19:28:57 13° NE
Okean 1-7 Rocket 4.2 19:26:51 10° NNW 19:31:13 57° W 19:35:36 10° S
GEOS 3 Rocket 3.7 19:30:05 26° SSE 19:32:57 71° SW 19:38:05 10° NW
Cosmos 1954 Rocket 3.9 19:28:05 10° NNW 19:33:20 87° WSW 19:36:06 28° SSE
Meteor 2-5 Rocket 3.8 19:28:31 10° N 19:34:25 89° WSW 19:39:13 16° S
Spot 2 Rocket 4.5 19:34:39 28° ENE 19:34:39 28° ENE 19:38:51 10° N
Cosmos 2082 3.6 19:31:59 10° SSW 19:37:42 77° ESE 19:43:26 10° NNE
USA 186 2.8 19:36:55 25° SSW 19:38:33 47° W 19:41:54 10° NNW
Meteor 1-22 Rocket 4.3 19:33:45 10° S 19:39:47 67° E 19:45:51 10° NNE
Meteor 1-4 Rocket 4.1 19:38:43 10° NNW 19:41:55 33° W 19:44:22 15° SSW
ARGOS 3.0 19:39:17 31° SSE 19:41:56 82° ENE 19:47:21 10° NNW
Cosmos 1544 Rocket 3.8 19:42:51 10° SSW 19:47:18 71° W 19:51:46 10° N
Cosmos 1455 Rocket 3.7 19:43:06 10° SSW 19:47:27 57° WNW 19:51:52 10° N
SJ-6B 3.7 19:46:28 23° SSW 19:48:43 50° W 19:52:42 10° NNW
Cosmos 2227 Rocket 2.9 19:46:56 10° SW 19:52:29 55° WNW 19:58:05 10° NNE
SPOT 3 Rocket 4.1 19:49:57 18° S 19:53:41 56° W 19:58:46 10° NNW
Cosmos 1766 3.6 19:54:23 36° SW 19:55:46 63° W 19:59:40 10° N
MetOp-A 4.0 19:55:15 57° SE 19:56:15 72° ENE 20:01:37 10° N
CZ-2C R/B 3.0 19:55:54 58° SE 19:56:53 72° ENE 20:02:28 10° N
Lacrosse 5 4.0 19:57:20 10° SSW 19:57:57 13° SSW 19:57:57 13° SSW
Cosmos 2297 Rocket 3.3 19:57:21 10° SW 20:02:45 45° WNW 20:08:11 10° NNE
Cosmos 1452 Rocket 3.5 20:01:53 10° SSW 20:07:08 80° WNW 20:12:25 10° NNE
Cosmos 1626 Rocket 3.7 20:02:52 10° NNW 20:07:09 69° W 20:07:09 69° W
Lacrosse 5 rocket 2.7 20:09:17 10° W 20:12:38 32° NNW 20:12:53 32° NNW
H-2A R/B 3.1 20:21:02 29° SW 20:22:56 40° W 20:27:42 10° NNW
Cosmos 1943 4.0 20:17:54 10° NNW 20:22:30 39° NE 20:22:30 39° NE
Resurs 1-3 4.5 20:24:59 45° W 20:24:59 45° W 20:29:13 10° NNW
Nadezhda 3 Rocket 3.8 20:30:13 85° SE 20:30:20 86° E 20:36:36 10° N
ADEOS Rocket 4.1 20:32:13 10° N 20:39:26 56° WNW 20:46:57 10° SW
Resurs 01 Rocket 2.9 20:40:24 39° WNW 20:40:24 39° WNW 20:43:56 10° NNW
Cosmos 1821 Rocket 4.0 20:39:44 10° N 20:45:40 76° WNW 20:45:40 76° WNW
Cosmos 1603 4.4 20:57:35 10° NNW 21:01:46 50° NW 21:01:46 50° NW
CZ-2C R/B 3.9 20:59:20 10° N 21:02:35 37° N 21:02:35 37° N
SL-16 R/B 4.1 21:02:54 10° NW 21:07:08 22° W 21:07:58 21° WSW
CZ-4C R/B 4.1 21:03:32 10° NNW 21:09:23 29° NNE 21:09:50 29° NE
Terra 4.2 21:21:13 18° N 21:21:13 18° N 21:22:27 10° N
CZ-4C R/B 4.3 22:51:43 10° NW 22:54:59 31° NW 22:54:59 31° NW
